Overview Statistics Trail Chart Weather Telemetry Raw packets
 

This is the latest recevied weather packets stored in our database for station/object VK4TW-13. If no packets are shown the sender has not sent any weather packets the latest 10 day(s).

<< 9 10 11 12 13 14 15 >>
Time Temp. Humidity Pressure Rain* Wind** Luminosity Snow
1788529370 17.22° C 100% 1020 hPa 0 mm - - -
1788528768 17.22° C 100% 1020 hPa 0 mm - - -
1788528168 17.78° C 100% 1020.2 hPa 0 mm - - -
1788527568 17.22° C 100% 1020.1 hPa 0 mm - - -
1788526966 17.22° C 100% 1020.3 hPa 0 mm - - -
1788526365 17.78° C 100% 1020.2 hPa 0 mm - - -
1788525764 17.78° C 100% 1020.3 hPa 0 mm - - -
1788525163 18.33° C 100% 1020.3 hPa 0 mm - - -
1788524562 18.33° C 100% 1020.2 hPa 0 mm - - -
1788523961 18.33° C 100% 1020.2 hPa 0 mm - - -
1788523360 18.89° C 100% 1020.1 hPa 0 mm - - -
1788522760 18.89° C 100% 1020.2 hPa 0 mm - - -
1788522158 19.44° C 100% 1020.1 hPa 0 mm - - -
1788521557 19.44° C 100% 1020 hPa 0 mm - - -
1788520957 20° C 100% 1020 hPa 0 mm - - -
1788520356 20° C 100% 1020 hPa 0 mm - - -
1788519755 20.56° C 100% 1019.9 hPa 0 mm - - -
1788519154 20.56° C 100% 1019.9 hPa 0 mm - - -
1788518553 21.11° C 100% 1019.8 hPa 0 mm - - -
1788517952 21.11° C 100% 1019.7 hPa 0 mm - - -
1788517352 21.11° C 100% 1019.6 hPa 0 mm - - -
1788516752 21.67° C 100% 1019.5 hPa 0 mm - - -
1788516149 21.67° C 100% 1019.3 hPa 0 mm - - -
1788515549 22.22° C 100% 1019.3 hPa 0 mm - - -
1788514949 22.22° C 100% 1019 hPa 0 mm - - -

* Rain since midnight (hover to see other rain measurements)
** Current wind speed in m/s (hover to see current wind gust speed)